This is the latest recevied weather packets stored in our database for station/object KI7MOQ. If no packets are shown the sender has not sent any weather packets the latest 10 day(s).
| Time | Temp. | Humidity | Pressure | Rain* | Wind** | Luminosity | Snow |
|---|---|---|---|---|---|---|---|
| 1778211293 | 17.78° C | 49% | 1018.5 hPa | 0 mm | - | 0 W/m² | - |
| 1778210990 | 17.78° C | 48% | 1018.3 hPa | 0 mm | - | 0 W/m² | - |
| 1778210687 | 18.33° C | 47% | 1018.2 hPa | 0 mm | - | 1 W/m² | - |
| 1778210384 | 18.33° C | 47% | 1018.2 hPa | 0 mm | - | 2 W/m² | - |
| 1778210082 | 18.33° C | 47% | 1018.2 hPa | 0 mm | - | 2 W/m² | - |
| 1778209777 | 18.33° C | 46% | 1018.3 hPa | 0 mm | - | 4 W/m² | - |
| 1778209474 | 18.89° C | 46% | 1018.3 hPa | 0 mm | - | 6 W/m² | - |
| 1778209172 | 18.89° C | 47% | 1018.2 hPa | 0 mm | - | 8 W/m² | - |
| 1778208868 | 18.89° C | 47% | 1018.3 hPa | 0 mm | - | 10 W/m² | - |
| 1778208565 | 18.89° C | 47% | 1018.3 hPa | 0 mm | - | 11 W/m² | - |
| 1778208261 | 18.89° C | 47% | 1018.3 hPa | 0 mm | - | 12 W/m² | - |
| 1778207958 | 18.89° C | 47% | 1018.4 hPa | 0 mm | - | 12 W/m² | - |
| 1778207655 | 18.89° C | 47% | 1018.4 hPa | 0 mm | - | 10 W/m² | - |
| 1778207352 | 18.89° C | 46% | 1018.4 hPa | 0 mm | - | 9 W/m² | - |
| 1778207048 | 18.89° C | 47% | 1018.3 hPa | 0 mm | - | 9 W/m² | - |
| 1778206745 | 19.44° C | 47% | 1018.2 hPa | 0 mm | - | 11 W/m² | - |
| 1778206441 | 19.44° C | 47% | 1018.3 hPa | 0 mm | - | 12 W/m² | - |
| 1778206137 | 19.44° C | 46% | 1018.3 hPa | 0 mm | - | 12 W/m² | - |
| 1778205835 | 19.44° C | 47% | 1018.5 hPa | 0 mm | - | 12 W/m² | - |
| 1778205532 | 20° C | 45% | 1018.6 hPa | 0 mm | - | 12 W/m² | - |
| 1778205230 | 20° C | 45% | 1018.5 hPa | 0 mm | - | 17 W/m² | - |
| 1778204926 | 20° C | 46% | 1018.5 hPa | 0 mm | - | 22 W/m² | - |
| 1778204623 | 20° C | 45% | 1018.6 hPa | 0 mm | - | 24 W/m² | - |
| 1778204317 | 20° C | 45% | 1018.8 hPa | 0 mm | - | 22 W/m² | - |
| 1778204015 | 20° C | 46% | 1018.7 hPa | 0 mm | - | 28 W/m² | - |
* Rain latest hour (hover to see other rain measurements)
** Current wind speed in m/s (hover to see current wind gust speed)